Change the Weather History Date:

Saturday, January 5, 2013

  Actual Average Record
Temperature  
Mean Temperature 19 °F 20 °F  
Max Temperature 30 °F 29 °F 66 °F (2012)
Min Temperature 8 °F 10 °F -22 °F (1960)
Degree Days  
Heating Degree Days 46 46  
Month to date heating degree days 221 227  
Since 1 July heating degree days 3149 3189  
Cooling Degree Days 0 0  
Month to date cooling degree days 0 0  
Year to date cooling degree days 0 0  
Moisture  
Dew Point 13 °F    
Average Humidity 80    
Maximum Humidity 92    
Minimum Humidity 68    
Precipitation  
Precipitation 0.00 in 0.02 in 0.53 in (1997)
Month to date precipitation 0.01 0.08  
Year to date precipitation 0.01 0.08  
Snow  
Snow 0.00 in 0.10 in 10.00 in (1997)
Month to date snowfall 0.2 0.8  
Since 1 July snowfall 12.1 12.0  
Snow Depth 2.00 in    
Sea Level Pressure  
Sea Level Pressure 30.13 in    
Wind  
Wind Speed 14 mph (WNW)    
Max Wind Speed 39 mph    
Max Gust Speed 46 mph    
Visibility 8 miles    
Events Snow    
T = Trace of Precipitation, MM = Missing Value Source: NWS Daily Summary

Daily Weather History Graph

Daily Weather History Graph

Search for Another Location

Airport or City:

Trip Planner

Search our weather history database for the weather conditions in past years. The results will help you decide how hot, cold, wet, or windy it might be!

Date:

Astronomy

Jan. 05, 2013 Rise Set
Actual Time 8:17 AM CST 5:16 PM CST
Civil Twilight 7:44 AM CST 5:49 PM CST
Nautical Twilight 7:07 AM CST 6:26 PM CST
Astronomical Twilight 6:32 AM CST 7:01 PM CST
Moon 1:17 AM CST (1/5) 12:14 PM CST (1/5)
Length of Visible Light 10h 05m
Length of Day
8h 59m
Last Quarter, 44% of the Moon is Illuminated
Jan 5
Last Quarter
Jan 11
New
Jan 18
First Quarter
Jan 26
Full
Feb 3
Last Quarter

Hourly Weather History & Observations

Time (CST) Temp. Windchill Dew Point Humidity Pressure Visibility Wind Dir Wind Speed Gust Speed Precip Events Conditions
12:53 AM 15.1 °F 3.3 °F 9.0 °F 77% 30.08 in 10.0 mi West 9.2 mph - N/A   Clear
1:53 AM 12.9 °F 2.6 °F 9.0 °F 84% 30.07 in 10.0 mi West 6.9 mph - N/A   Clear
2:53 AM 14.0 °F 2.9 °F 8.1 °F 77% 30.07 in 10.0 mi WSW 8.1 mph - N/A   Clear
3:53 AM 14.0 °F 2.9 °F 8.1 °F 77% 30.07 in 10.0 mi SW 8.1 mph - N/A   Clear
4:53 AM 15.1 °F 5.2 °F 8.1 °F 74% 30.06 in 10.0 mi WSW 6.9 mph - N/A   Clear
5:53 AM 16.0 °F 2.9 °F 9.0 °F 74% 30.06 in 10.0 mi WSW 11.5 mph - N/A   Clear
6:53 AM 17.1 °F 7.6 °F 10.0 °F 74% 30.07 in 10.0 mi WSW 6.9 mph - N/A   Clear
7:53 AM 19.9 °F 12.1 °F 12.9 °F 74% 30.07 in 10.0 mi WSW 5.8 mph - N/A   Clear
8:53 AM 28.0 °F 17.0 °F 19.9 °F 72% 30.06 in 10.0 mi WNW 13.8 mph - N/A   Clear
9:53 AM 30.0 °F 16.3 °F 21.0 °F 69% 30.08 in 10.0 mi WNW 24.2 mph 29.9 mph N/A   Clear
10:53 AM 28.0 °F 11.5 °F 21.0 °F 75% 30.10 in 6.0 mi NW 33.4 mph 39.1 mph N/A   Haze
11:15 AM 26.6 °F 8.9 °F 17.6 °F 69% 30.03 in 2.5 mi NW 36.8 mph 42.6 mph N/A   Haze
11:31 AM 24.8 °F 8.1 °F 15.8 °F 69% 30.05 in 7.0 mi NW 28.8 mph 39.1 mph 0.00 in   Partly Cloudy
11:53 AM 24.1 °F 7.1 °F 15.1 °F 69% 30.16 in 10.0 mi NNW 28.8 mph 33.4 mph 0.00 in   Scattered Clouds
12:04 PM 24.8 °F 8.7 °F 15.8 °F 69% 30.07 in 9.0 mi NW 26.5 mph 36.8 mph N/A   Mostly Cloudy
12:36 PM 23.0 °F 6.3 °F 15.8 °F 74% 30.06 in 4.0 mi NW 26.5 mph 39.1 mph N/A   Haze
12:53 PM 23.0 °F 4.6 °F 16.0 °F 74% 30.13 in 2.5 mi NW 33.4 mph 46.0 mph N/A Snow Blowing Snow
1:11 PM 23.0 °F 5.4 °F 15.8 °F 74% 30.05 in 3.0 mi NW 29.9 mph 38.0 mph N/A   Haze
1:53 PM 23.0 °F 5.4 °F 15.1 °F 72% 30.13 in 4.0 mi NW 29.9 mph 38.0 mph N/A   Haze
2:18 PM 21.2 °F 2.4 °F 15.8 °F 80% 30.04 in 1.8 mi NW 32.2 mph 41.4 mph N/A Snow Blowing Snow
2:31 PM 21.2 °F 4.2 °F 15.8 °F 80% 30.05 in 2.5 mi NNW 25.3 mph 39.1 mph N/A   Haze
2:41 PM 21.2 °F 3.5 °F 15.8 °F 80% 30.07 in 4.0 mi NW 27.6 mph 35.7 mph N/A   Haze
2:53 PM 21.0 °F 5.4 °F 14.0 °F 74% 30.17 in 8.0 mi NNW 20.7 mph 32.2 mph N/A   Partly Cloudy
3:09 PM 21.2 °F 6.4 °F 14.0 °F 74% 30.10 in 10.0 mi NNW 18.4 mph - N/A   Mostly Cloudy
3:37 PM 19.4 °F 3.6 °F 14.0 °F 80% 30.11 in 10.0 mi NNW 19.6 mph - N/A   Scattered Clouds
3:45 PM 19.4 °F 4.1 °F 14.0 °F 80% 30.11 in 10.0 mi NNW 18.4 mph 26.5 mph N/A   Mostly Cloudy
3:53 PM 19.9 °F 3.9 °F 14.0 °F 78% 30.22 in 10.0 mi NNW 20.7 mph - N/A   Mostly Cloudy
4:21 PM 19.4 °F 4.1 °F 14.0 °F 80% 30.14 in 10.0 mi NNW 18.4 mph - N/A   Scattered Clouds
4:53 PM 19.0 °F 4.5 °F 14.0 °F 81% 30.24 in 10.0 mi NNW 16.1 mph - N/A   Clear
5:53 PM 15.1 °F 3.3 °F 10.0 °F 80% 30.26 in 10.0 mi NNW 9.2 mph - N/A   Clear
6:53 PM 12.9 °F 5.2 °F 9.0 °F 84% 30.28 in 10.0 mi NW 4.6 mph - N/A   Clear
7:53 PM 10.0 °F -1.9 °F 7.0 °F 87% 30.29 in 10.0 mi WNW 8.1 mph - N/A   Clear
8:53 PM 14.0 °F 5.1 °F 10.9 °F 88% 30.27 in - SW 5.8 mph - N/A   Clear
9:53 PM 12.9 °F 2.6 °F 10.0 °F 88% 30.26 in - SW 6.9 mph - N/A   Clear
10:53 PM 12.9 °F 2.6 °F 9.0 °F 84% 30.26 in - WSW 6.9 mph - N/A   Clear
11:53 PM 14.0 °F 3.9 °F 10.0 °F 84% 30.26 in 10.0 mi WSW 6.9 mph - N/A   Clear